Year,Month,Day,Hour,Minute,Value (Times are PST for temperature in C)
2010,02,19,00,00,5.70
2010,02,19,00,01,5.70
2010,02,19,00,02,5.70
2010,02,19,00,03,5.70
2010,02,19,00,04,5.70
2010,02,19,00,05,5.80
2010,02,19,00,06,5.80
2010,02,19,00,07,5.80
2010,02,19,00,08,5.80
2010,02,19,00,09,5.80
2010,02,19,00,10,5.80
2010,02,19,00,11,5.90
2010,02,19,00,12,5.90
2010,02,19,00,13,5.90
2010,02,19,00,14,6.00
2010,02,19,00,15,6.00
2010,02,19,00,16,6.00
2010,02,19,00,17,6.00
2010,02,19,00,18,6.00
2010,02,19,00,19,6.00
2010,02,19,00,20,6.00
2010,02,19,00,21,6.00
2010,02,19,00,22,6.00
2010,02,19,00,23,6.00
2010,02,19,00,24,6.10
2010,02,19,00,25,6.00
2010,02,19,00,26,6.10
2010,02,19,00,27,6.10
2010,02,19,00,28,6.10
2010,02,19,00,29,6.10
2010,02,19,00,30,6.10
2010,02,19,00,31,6.10
2010,02,19,00,32,6.10
2010,02,19,00,33,6.20
2010,02,19,00,34,6.20
2010,02,19,00,35,6.20
2010,02,19,00,36,6.20
2010,02,19,00,37,6.20
2010,02,19,00,38,6.30
2010,02,19,00,39,6.30
2010,02,19,00,40,6.30
2010,02,19,00,41,6.40
2010,02,19,00,42,6.40
2010,02,19,00,43,6.40
2010,02,19,00,44,6.50
2010,02,19,00,45,6.50
2010,02,19,00,46,6.60
2010,02,19,00,47,6.60
2010,02,19,00,48,6.60
2010,02,19,00,49,6.70
2010,02,19,00,50,6.70
2010,02,19,00,51,6.70
2010,02,19,00,52,6.80
2010,02,19,00,53,6.80
2010,02,19,00,54,6.80
2010,02,19,00,55,6.80
2010,02,19,00,56,6.80
2010,02,19,00,57,6.80
2010,02,19,00,58,6.80
2010,02,19,00,59,6.80
2010,02,19,01,00,6.90
2010,02,19,01,01,6.90
2010,02,19,01,02,7.00
2010,02,19,01,03,7.10
2010,02,19,01,04,7.10
2010,02,19,01,05,7.20
2010,02,19,01,06,7.20
2010,02,19,01,07,7.20
2010,02,19,01,08,7.20
2010,02,19,01,09,7.30
2010,02,19,01,10,7.40
2010,02,19,01,11,7.40
2010,02,19,01,12,7.50
2010,02,19,01,13,7.50
2010,02,19,01,14,7.50
2010,02,19,01,15,7.60
2010,02,19,01,16,7.60
2010,02,19,01,17,7.70
2010,02,19,01,18,7.70
2010,02,19,01,19,7.80
2010,02,19,01,20,7.90
2010,02,19,01,21,7.90
2010,02,19,01,22,7.90
2010,02,19,01,23,7.90
2010,02,19,01,24,7.80
2010,02,19,01,25,7.80
2010,02,19,01,26,7.80
2010,02,19,01,27,7.70
2010,02,19,01,28,7.60
2010,02,19,01,29,7.60
2010,02,19,01,30,7.50
2010,02,19,01,31,7.50
2010,02,19,01,32,7.40
2010,02,19,01,33,7.40
2010,02,19,01,34,7.30
2010,02,19,01,35,7.30
2010,02,19,01,36,7.20
2010,02,19,01,37,7.20
2010,02,19,01,38,7.20
2010,02,19,01,39,7.20
2010,02,19,01,40,7.20
2010,02,19,01,41,7.20
2010,02,19,01,42,7.20
2010,02,19,01,43,7.20
2010,02,19,01,44,7.20
2010,02,19,01,45,7.30
2010,02,19,01,46,7.40
2010,02,19,01,47,7.50
2010,02,19,01,48,7.50
2010,02,19,01,49,7.60
2010,02,19,01,50,7.60
2010,02,19,01,51,7.60
2010,02,19,01,52,7.70
2010,02,19,01,53,7.70
2010,02,19,01,54,7.70
2010,02,19,01,55,7.80
2010,02,19,01,56,7.90
2010,02,19,01,57,8.00
2010,02,19,01,58,8.10
2010,02,19,01,59,8.10
2010,02,19,02,00,8.10
2010,02,19,02,01,8.10
2010,02,19,02,02,8.10
2010,02,19,02,03,8.10
2010,02,19,02,04,8.00
2010,02,19,02,05,8.00
2010,02,19,02,06,7.90
2010,02,19,02,07,7.90
2010,02,19,02,08,7.90
2010,02,19,02,09,7.90
2010,02,19,02,10,7.80
2010,02,19,02,11,7.80
2010,02,19,02,12,7.80
2010,02,19,02,13,7.70
2010,02,19,02,14,7.70
2010,02,19,02,15,7.70
2010,02,19,02,16,7.80
2010,02,19,02,17,7.80
2010,02,19,02,18,7.80
2010,02,19,02,19,7.90
2010,02,19,02,20,7.90
2010,02,19,02,21,7.90
2010,02,19,02,22,7.90
2010,02,19,02,23,7.90
2010,02,19,02,24,7.90
2010,02,19,02,25,7.90
2010,02,19,02,26,7.90
2010,02,19,02,27,7.80
2010,02,19,02,28,7.80
2010,02,19,02,29,7.80
2010,02,19,02,30,7.80
2010,02,19,02,31,7.80
2010,02,19,02,32,7.90
2010,02,19,02,33,7.90
2010,02,19,02,34,8.00
2010,02,19,02,35,8.00
2010,02,19,02,36,8.10
2010,02,19,02,37,8.10
2010,02,19,02,38,8.10
2010,02,19,02,39,8.10
2010,02,19,02,40,8.20
2010,02,19,02,41,8.20
2010,02,19,02,42,8.20
2010,02,19,02,43,8.20
2010,02,19,02,44,8.20
2010,02,19,02,45,8.20
2010,02,19,02,46,8.20
2010,02,19,02,47,8.10
2010,02,19,02,48,8.10
2010,02,19,02,49,8.10
2010,02,19,02,50,8.10
2010,02,19,02,51,8.10
2010,02,19,02,52,8.10
2010,02,19,02,53,8.20
2010,02,19,02,54,8.20
2010,02,19,02,55,8.20
2010,02,19,02,56,8.10
2010,02,19,02,57,8.10
2010,02,19,02,58,8.10
2010,02,19,02,59,8.10
2010,02,19,03,00,8.10
2010,02,19,03,01,8.10
2010,02,19,03,02,8.00
2010,02,19,03,03,8.00
2010,02,19,03,04,7.90
2010,02,19,03,05,7.90
2010,02,19,03,06,7.90
2010,02,19,03,07,7.90
2010,02,19,03,08,7.90
2010,02,19,03,09,7.90
2010,02,19,03,10,7.90
2010,02,19,03,11,7.90
2010,02,19,03,12,7.90
2010,02,19,03,13,7.90
2010,02,19,03,14,7.90
2010,02,19,03,15,7.90
2010,02,19,03,16,7.90
2010,02,19,03,17,7.90
2010,02,19,03,18,7.90
2010,02,19,03,19,7.90
2010,02,19,03,20,7.90
2010,02,19,03,21,7.90
2010,02,19,03,22,8.00
2010,02,19,03,23,8.00
2010,02,19,03,24,8.10
2010,02,19,03,25,8.10
2010,02,19,03,26,8.20
2010,02,19,03,27,8.20
2010,02,19,03,28,8.30
2010,02,19,03,29,8.40
2010,02,19,03,30,8.50
2010,02,19,03,31,8.50
2010,02,19,03,32,8.50
2010,02,19,03,33,8.60
2010,02,19,03,34,8.60
2010,02,19,03,35,8.60
2010,02,19,03,36,8.60
2010,02,19,03,37,8.60
2010,02,19,03,38,8.60
2010,02,19,03,39,8.50
2010,02,19,03,40,8.50
2010,02,19,03,41,8.50
2010,02,19,03,42,8.50
2010,02,19,03,43,8.50
2010,02,19,03,44,8.50
2010,02,19,03,45,8.50
2010,02,19,03,46,8.40
2010,02,19,03,47,8.40
2010,02,19,03,48,8.40
2010,02,19,03,49,8.40
2010,02,19,03,50,8.30
2010,02,19,03,51,8.30
2010,02,19,03,52,8.30
2010,02,19,03,53,8.30
2010,02,19,03,54,8.20
2010,02,19,03,55,8.20
2010,02,19,03,56,8.20
2010,02,19,03,57,8.20
2010,02,19,03,58,8.10
2010,02,19,03,59,8.10
2010,02,19,04,00,8.00
2010,02,19,04,01,8.00
2010,02,19,04,02,7.90
2010,02,19,04,03,7.90
2010,02,19,04,04,7.80
2010,02,19,04,05,7.80
2010,02,19,04,06,7.70
2010,02,19,04,07,7.60
2010,02,19,04,08,7.60
2010,02,19,04,09,7.50
2010,02,19,04,10,7.40
2010,02,19,04,11,7.30
2010,02,19,04,12,7.30
2010,02,19,04,13,7.20
2010,02,19,04,14,7.10
2010,02,19,04,15,7.00
2010,02,19,04,16,6.90
2010,02,19,04,17,6.80
2010,02,19,04,18,6.70
2010,02,19,04,19,6.60
2010,02,19,04,20,6.50
2010,02,19,04,21,6.40
2010,02,19,04,22,6.40
2010,02,19,04,23,6.30
2010,02,19,04,24,6.20
2010,02,19,04,25,6.10
2010,02,19,04,26,6.10
2010,02,19,04,27,6.00
2010,02,19,04,28,5.90
2010,02,19,04,29,5.90
2010,02,19,04,30,5.90
2010,02,19,04,31,5.90
2010,02,19,04,32,5.80
2010,02,19,04,33,5.80
2010,02,19,04,34,5.70
2010,02,19,04,35,5.70
2010,02,19,04,36,5.60
2010,02,19,04,37,5.50
2010,02,19,04,38,5.40
2010,02,19,04,39,5.30
2010,02,19,04,40,5.20
2010,02,19,04,41,5.10
2010,02,19,04,42,5.00
2010,02,19,04,43,4.80
2010,02,19,04,44,4.80
2010,02,19,04,45,4.70
2010,02,19,04,46,4.60
2010,02,19,04,47,4.60
2010,02,19,04,48,4.50
2010,02,19,04,49,4.50
2010,02,19,04,50,4.40
2010,02,19,04,51,4.30
2010,02,19,04,52,4.30
2010,02,19,04,53,4.20
2010,02,19,04,54,4.20
2010,02,19,04,55,4.20
2010,02,19,04,56,4.10
2010,02,19,04,57,4.10
2010,02,19,04,58,4.10
2010,02,19,04,59,4.10
2010,02,19,05,00,4.10
2010,02,19,05,01,4.10
2010,02,19,05,02,4.10
2010,02,19,05,03,4.00
2010,02,19,05,04,4.00
2010,02,19,05,05,3.90
2010,02,19,05,06,3.90
2010,02,19,05,07,3.90
2010,02,19,05,08,3.80
2010,02,19,05,09,3.80
2010,02,19,05,10,3.80
2010,02,19,05,11,3.70
2010,02,19,05,12,3.70
2010,02,19,05,13,3.60
2010,02,19,05,14,3.60
2010,02,19,05,15,3.60
2010,02,19,05,16,3.50
2010,02,19,05,17,3.50
2010,02,19,05,18,3.50
2010,02,19,05,19,3.50
2010,02,19,05,20,3.50
2010,02,19,05,21,3.50
2010,02,19,05,22,3.50
2010,02,19,05,23,3.50
2010,02,19,05,24,3.60
2010,02,19,05,25,3.70
2010,02,19,05,26,3.80
2010,02,19,05,27,3.90
2010,02,19,05,28,4.00
2010,02,19,05,29,4.10
2010,02,19,05,30,4.20
2010,02,19,05,31,4.30
2010,02,19,05,32,4.40
2010,02,19,05,33,4.50
2010,02,19,05,34,4.60
2010,02,19,05,35,4.70
2010,02,19,05,36,4.70
2010,02,19,05,37,4.70
2010,02,19,05,38,4.80
2010,02,19,05,39,4.80
2010,02,19,05,40,4.80
2010,02,19,05,41,4.80
2010,02,19,05,42,4.90
2010,02,19,05,43,4.90
2010,02,19,05,44,4.90
2010,02,19,05,45,4.90
2010,02,19,05,46,5.00
2010,02,19,05,47,5.00
2010,02,19,05,48,5.10
2010,02,19,05,49,5.10
2010,02,19,05,50,5.10
2010,02,19,05,51,5.10
2010,02,19,05,52,5.10
2010,02,19,05,53,5.10
2010,02,19,05,54,5.10
2010,02,19,05,55,5.10
2010,02,19,05,56,5.10
2010,02,19,05,57,5.10
2010,02,19,05,58,5.10
2010,02,19,05,59,5.10
2010,02,19,06,00,5.10
2010,02,19,06,01,5.00
2010,02,19,06,02,5.00
2010,02,19,06,03,4.90
2010,02,19,06,04,4.80
2010,02,19,06,05,4.80
2010,02,19,06,06,4.80
2010,02,19,06,07,4.70
2010,02,19,06,08,4.60
2010,02,19,06,09,4.50
2010,02,19,06,10,4.40
2010,02,19,06,11,4.30
2010,02,19,06,12,4.30
2010,02,19,06,13,4.20
2010,02,19,06,14,4.10
2010,02,19,06,15,4.20
2010,02,19,06,16,4.30
2010,02,19,06,17,4.30
2010,02,19,06,18,4.40
2010,02,19,06,19,4.40
2010,02,19,06,20,4.50
2010,02,19,06,21,4.70
2010,02,19,06,22,4.80
2010,02,19,06,23,4.80
2010,02,19,06,24,4.80
2010,02,19,06,25,4.90
2010,02,19,06,26,4.90
2010,02,19,06,27,4.90
2010,02,19,06,28,4.90
2010,02,19,06,29,5.00
2010,02,19,06,30,5.10
2010,02,19,06,31,5.10
2010,02,19,06,32,5.10
2010,02,19,06,33,5.10
2010,02,19,06,34,5.10
2010,02,19,06,35,5.10
2010,02,19,06,36,5.10
2010,02,19,06,37,5.10
2010,02,19,06,38,5.20
2010,02,19,06,39,5.10
2010,02,19,06,40,5.10
2010,02,19,06,41,5.10
2010,02,19,06,42,5.10
2010,02,19,06,43,5.10
2010,02,19,06,44,5.10
2010,02,19,06,45,5.10
2010,02,19,06,46,5.00
2010,02,19,06,47,5.00
2010,02,19,06,48,5.10
2010,02,19,06,49,5.10
2010,02,19,06,50,5.10
2010,02,19,06,51,5.10
2010,02,19,06,52,5.10
2010,02,19,06,53,5.00
2010,02,19,06,54,5.00
2010,02,19,06,55,5.00
2010,02,19,06,56,5.00
2010,02,19,06,57,5.00
2010,02,19,06,58,5.00
2010,02,19,06,59,5.00
2010,02,19,07,00,5.00
2010,02,19,07,01,5.10
2010,02,19,07,02,5.10
2010,02,19,07,03,5.10
2010,02,19,07,04,5.10
2010,02,19,07,05,5.10
2010,02,19,07,06,5.10
2010,02,19,07,07,5.00
2010,02,19,07,08,5.00
2010,02,19,07,09,5.00
2010,02,19,07,10,4.90
2010,02,19,07,11,4.90
2010,02,19,07,12,4.90
2010,02,19,07,13,4.90
2010,02,19,07,14,4.90
2010,02,19,07,15,4.90
2010,02,19,07,16,5.00
2010,02,19,07,17,5.00
2010,02,19,07,18,5.10
2010,02,19,07,19,5.10
2010,02,19,07,20,5.00
2010,02,19,07,21,5.00
2010,02,19,07,22,4.90
2010,02,19,07,23,4.90
2010,02,19,07,24,4.80
2010,02,19,07,25,4.80
2010,02,19,07,26,4.80
2010,02,19,07,27,4.80
2010,02,19,07,28,4.80
2010,02,19,07,29,4.80
2010,02,19,07,30,4.90
2010,02,19,07,31,4.90
2010,02,19,07,32,4.90
2010,02,19,07,33,5.00
2010,02,19,07,34,5.00
2010,02,19,07,35,5.10
2010,02,19,07,36,5.20
2010,02,19,07,37,5.30
2010,02,19,07,38,5.50
2010,02,19,07,39,5.50
2010,02,19,07,40,5.60
2010,02,19,07,41,5.60
2010,02,19,07,42,5.60
2010,02,19,07,43,5.70
2010,02,19,07,44,5.70
2010,02,19,07,45,5.70
2010,02,19,07,46,5.70
2010,02,19,07,47,5.70
2010,02,19,07,48,5.70
2010,02,19,07,49,5.70
2010,02,19,07,50,5.70
2010,02,19,07,51,5.80
2010,02,19,07,52,5.80
2010,02,19,07,53,5.80
2010,02,19,07,54,5.90
2010,02,19,07,55,5.90
2010,02,19,07,56,5.90
2010,02,19,07,57,6.00
2010,02,19,07,58,6.00
2010,02,19,07,59,6.00
2010,02,19,08,00,6.10
2010,02,19,08,01,6.10
2010,02,19,08,02,6.10
2010,02,19,08,03,6.20
2010,02,19,08,04,6.30
2010,02,19,08,05,6.40
2010,02,19,08,06,6.40
2010,02,19,08,07,6.50
2010,02,19,08,08,6.60
2010,02,19,08,09,6.70
2010,02,19,08,10,6.80
2010,02,19,08,11,6.80
2010,02,19,08,12,6.90
2010,02,19,08,13,6.90
2010,02,19,08,14,6.90
2010,02,19,08,15,7.00
2010,02,19,08,16,7.00
2010,02,19,08,17,7.10
2010,02,19,08,18,7.20
2010,02,19,08,19,7.30
2010,02,19,08,20,7.40
2010,02,19,08,21,7.40
2010,02,19,08,22,7.50
2010,02,19,08,23,7.60
2010,02,19,08,24,7.60
2010,02,19,08,25,7.70
2010,02,19,08,26,7.80
2010,02,19,08,27,7.80
2010,02,19,08,28,7.90
2010,02,19,08,29,8.00
2010,02,19,08,30,8.00
2010,02,19,08,31,8.10
2010,02,19,08,32,8.20
2010,02,19,08,33,8.20
2010,02,19,08,34,8.30
2010,02,19,08,35,8.30
2010,02,19,08,36,8.30
2010,02,19,08,37,8.40
2010,02,19,08,38,8.40
2010,02,19,08,39,8.50
2010,02,19,08,40,8.50
2010,02,19,08,41,8.60
2010,02,19,08,42,8.70
2010,02,19,08,43,8.70
2010,02,19,08,44,8.80
2010,02,19,08,45,8.90
2010,02,19,08,46,8.90
2010,02,19,08,47,8.90
2010,02,19,08,48,9.00
2010,02,19,08,49,9.00
2010,02,19,08,50,9.10
2010,02,19,08,51,9.10
2010,02,19,08,52,9.10
2010,02,19,08,53,9.20
2010,02,19,08,54,9.20
2010,02,19,08,55,9.20
2010,02,19,08,56,9.20
2010,02,19,08,57,9.20
2010,02,19,08,58,9.20
2010,02,19,08,59,9.20
2010,02,19,09,00,9.30
2010,02,19,09,01,9.30
2010,02,19,09,02,9.30
2010,02,19,09,03,9.30
2010,02,19,09,04,9.30
2010,02,19,09,05,9.40
2010,02,19,09,06,9.40
2010,02,19,09,07,9.50
2010,02,19,09,08,9.50
2010,02,19,09,09,9.50
2010,02,19,09,10,9.60
2010,02,19,09,11,9.60
2010,02,19,09,12,9.60
2010,02,19,09,13,9.60
2010,02,19,09,14,9.70
2010,02,19,09,15,9.70
2010,02,19,09,16,9.70
2010,02,19,09,17,9.80
2010,02,19,09,18,9.80
2010,02,19,09,19,9.80
2010,02,19,09,20,9.90
2010,02,19,09,21,9.90
2010,02,19,09,22,9.90
2010,02,19,09,23,9.90
2010,02,19,09,24,9.90
2010,02,19,09,25,9.90
2010,02,19,09,26,9.90
2010,02,19,09,27,9.90
2010,02,19,09,28,9.90
2010,02,19,09,29,10.00
2010,02,19,09,30,10.00
2010,02,19,09,31,10.00
2010,02,19,09,32,10.00
2010,02,19,09,33,10.10
2010,02,19,09,34,10.10
2010,02,19,09,35,10.10
2010,02,19,09,36,10.20
2010,02,19,09,37,10.20
2010,02,19,09,38,10.20
2010,02,19,09,39,10.20
2010,02,19,09,40,10.30
2010,02,19,09,41,10.30
2010,02,19,09,42,10.20
2010,02,19,09,43,10.20
2010,02,19,09,44,10.20
2010,02,19,09,45,10.20
2010,02,19,09,46,10.20
2010,02,19,09,47,10.20
2010,02,19,09,48,10.10
2010,02,19,09,49,10.10
2010,02,19,09,50,10.10
2010,02,19,09,51,10.10
2010,02,19,09,52,10.10
2010,02,19,09,53,10.20
2010,02,19,09,54,10.20
2010,02,19,09,55,10.20
2010,02,19,09,56,10.20
2010,02,19,09,57,10.20
2010,02,19,09,58,10.20
2010,02,19,09,59,10.20
2010,02,19,10,00,10.20
2010,02,19,10,01,10.10
2010,02,19,10,02,10.10
2010,02,19,10,03,10.10
2010,02,19,10,04,10.10
2010,02,19,10,05,10.10
2010,02,19,10,06,10.00
2010,02,19,10,07,10.00
2010,02,19,10,08,10.00
2010,02,19,10,09,9.90
2010,02,19,10,10,9.90
2010,02,19,10,11,9.90
2010,02,19,10,12,9.90
2010,02,19,10,13,9.90
2010,02,19,10,14,9.90
2010,02,19,10,15,10.00
2010,02,19,10,16,10.00
2010,02,19,10,17,10.10
2010,02,19,10,18,10.10
2010,02,19,10,19,10.10
2010,02,19,10,20,10.20
2010,02,19,10,21,10.20
2010,02,19,10,22,10.20
2010,02,19,10,23,10.20
2010,02,19,10,24,10.30
2010,02,19,10,25,10.30
2010,02,19,10,26,10.40
2010,02,19,10,27,10.40
2010,02,19,10,28,10.40
2010,02,19,10,29,10.40
2010,02,19,10,30,10.40
2010,02,19,10,31,10.30
2010,02,19,10,32,10.30
2010,02,19,10,33,10.30
2010,02,19,10,34,10.30
2010,02,19,10,35,10.30
2010,02,19,10,36,10.20
2010,02,19,10,37,10.20
2010,02,19,10,38,10.10
2010,02,19,10,39,10.10
2010,02,19,10,40,10.10
2010,02,19,10,41,10.10
2010,02,19,10,42,10.10
2010,02,19,10,43,10.00
2010,02,19,10,44,10.00
2010,02,19,10,45,10.00
2010,02,19,10,46,10.00
2010,02,19,10,47,9.90
2010,02,19,10,48,9.90
2010,02,19,10,49,9.90
2010,02,19,10,50,9.90
2010,02,19,10,51,9.90
2010,02,19,10,52,9.90
2010,02,19,10,53,9.90
2010,02,19,10,54,9.90
2010,02,19,10,55,9.90
2010,02,19,10,56,9.90
2010,02,19,10,57,9.90
2010,02,19,10,58,9.90
2010,02,19,10,59,9.90
2010,02,19,11,00,9.90
2010,02,19,11,01,9.90
2010,02,19,11,02,9.90
2010,02,19,11,03,9.90
2010,02,19,11,04,9.90
2010,02,19,11,05,9.90
2010,02,19,11,06,9.90
2010,02,19,11,07,9.90
2010,02,19,11,08,9.90
2010,02,19,11,09,10.00
2010,02,19,11,10,10.00
2010,02,19,11,11,10.10
2010,02,19,11,12,10.10
2010,02,19,11,13,10.10
2010,02,19,11,14,10.20
2010,02,19,11,15,10.20
2010,02,19,11,16,10.20
2010,02,19,11,17,10.30
2010,02,19,11,18,10.30
2010,02,19,11,19,10.40
2010,02,19,11,20,10.40
2010,02,19,11,21,10.50
2010,02,19,11,22,10.60
2010,02,19,11,23,10.60
2010,02,19,11,24,10.70
2010,02,19,11,25,10.70
2010,02,19,11,26,10.80
2010,02,19,11,27,10.70
2010,02,19,11,28,10.70
2010,02,19,11,29,10.70
2010,02,19,11,30,10.80
2010,02,19,11,31,10.80
2010,02,19,11,32,10.90
2010,02,19,11,33,10.90
2010,02,19,11,34,11.00
2010,02,19,11,35,11.00
2010,02,19,11,36,11.10
2010,02,19,11,37,11.10
2010,02,19,11,38,11.10
2010,02,19,11,39,11.00
2010,02,19,11,40,11.00
2010,02,19,11,41,11.00
2010,02,19,11,42,11.00
2010,02,19,11,43,11.00
2010,02,19,11,44,11.00
2010,02,19,11,45,11.10
2010,02,19,11,46,11.10
2010,02,19,11,47,11.10
2010,02,19,11,48,11.20
2010,02,19,11,49,11.20
2010,02,19,11,50,11.20
2010,02,19,11,51,11.20
2010,02,19,11,52,11.20
2010,02,19,11,53,11.30
2010,02,19,11,54,11.30
2010,02,19,11,55,11.30
2010,02,19,11,56,11.40
2010,02,19,11,57,11.40
2010,02,19,11,58,11.50
2010,02,19,11,59,11.50
2010,02,19,12,00,11.60
2010,02,19,12,01,11.60
2010,02,19,12,02,11.70
2010,02,19,12,03,11.70
2010,02,19,12,04,11.70
2010,02,19,12,05,11.70
2010,02,19,12,06,11.70
2010,02,19,12,07,11.70
2010,02,19,12,08,11.70
2010,02,19,12,09,11.60
2010,02,19,12,10,11.60
2010,02,19,12,11,11.70
2010,02,19,12,12,11.70
2010,02,19,12,13,11.70
2010,02,19,12,14,11.70
2010,02,19,12,15,11.80
2010,02,19,12,16,11.80
2010,02,19,12,17,11.80
2010,02,19,12,18,11.80
2010,02,19,12,19,11.80
2010,02,19,12,20,11.90
2010,02,19,12,21,11.90
2010,02,19,12,22,11.90
2010,02,19,12,23,11.90
2010,02,19,12,24,12.00
2010,02,19,12,25,12.00
2010,02,19,12,26,12.00
2010,02,19,12,27,12.00
2010,02,19,12,28,12.00
2010,02,19,12,29,12.00
2010,02,19,12,30,11.90
2010,02,19,12,31,11.90
2010,02,19,12,32,11.90
2010,02,19,12,33,11.90
2010,02,19,12,34,11.90
2010,02,19,12,35,11.90
2010,02,19,12,36,12.00
2010,02,19,12,37,12.00
2010,02,19,12,38,12.00
2010,02,19,12,39,12.00
2010,02,19,12,40,12.10
2010,02,19,12,41,12.10
2010,02,19,12,42,12.10
2010,02,19,12,43,12.10
2010,02,19,12,44,12.10
2010,02,19,12,45,12.20
2010,02,19,12,46,12.20
2010,02,19,12,47,12.20
2010,02,19,12,48,12.20
2010,02,19,12,49,12.10
2010,02,19,12,50,12.10
2010,02,19,12,51,12.10
2010,02,19,12,52,12.10
2010,02,19,12,53,12.10
2010,02,19,12,54,12.10
2010,02,19,12,55,12.10
2010,02,19,12,56,12.20
2010,02,19,12,57,12.20
2010,02,19,12,58,12.30
2010,02,19,12,59,12.30
2010,02,19,13,00,12.40
2010,02,19,13,01,12.40
2010,02,19,13,02,12.30
2010,02,19,13,03,12.30
2010,02,19,13,04,12.30
2010,02,19,13,05,12.30
2010,02,19,13,06,12.20
2010,02,19,13,07,12.30
2010,02,19,13,08,12.30
2010,02,19,13,09,12.30
2010,02,19,13,10,12.30
2010,02,19,13,11,12.30
2010,02,19,13,12,12.30
2010,02,19,13,13,12.40
2010,02,19,13,14,12.40
2010,02,19,13,15,12.40
2010,02,19,13,16,12.40
2010,02,19,13,17,12.40
2010,02,19,13,18,12.50
2010,02,19,13,19,12.50
2010,02,19,13,20,12.40
2010,02,19,13,21,12.40
2010,02,19,13,22,12.40
2010,02,19,13,23,12.30
2010,02,19,13,24,12.40
2010,02,19,13,25,12.40
2010,02,19,13,26,12.40
2010,02,19,13,27,12.30
2010,02,19,13,28,12.30
2010,02,19,13,29,12.30
2010,02,19,13,30,12.30
2010,02,19,13,31,12.30
2010,02,19,13,32,12.30
2010,02,19,13,33,12.40
2010,02,19,13,34,12.40
2010,02,19,13,35,12.40
2010,02,19,13,36,12.30
2010,02,19,13,37,12.40
2010,02,19,13,38,12.50
2010,02,19,13,39,12.50
2010,02,19,13,40,12.50
2010,02,19,13,41,12.50
2010,02,19,13,42,12.60
2010,02,19,13,43,12.60
2010,02,19,13,44,12.60
2010,02,19,13,45,12.70
2010,02,19,13,46,12.70
2010,02,19,13,47,12.70
2010,02,19,13,48,12.80
2010,02,19,13,49,12.80
2010,02,19,13,50,12.80
2010,02,19,13,51,12.80
2010,02,19,13,52,12.80
2010,02,19,13,53,12.80
2010,02,19,13,54,12.80
2010,02,19,13,55,12.80
2010,02,19,13,56,12.80
2010,02,19,13,57,12.90
2010,02,19,13,58,12.90
2010,02,19,13,59,12.90
2010,02,19,14,00,12.90
2010,02,19,14,01,13.00
2010,02,19,14,02,13.00
2010,02,19,14,03,13.00
2010,02,19,14,04,13.10
2010,02,19,14,05,13.10
2010,02,19,14,06,13.10
2010,02,19,14,07,13.10
2010,02,19,14,08,13.10
2010,02,19,14,09,13.10
2010,02,19,14,10,13.10
2010,02,19,14,11,13.10
2010,02,19,14,12,13.10
2010,02,19,14,13,13.10
2010,02,19,14,14,13.10
2010,02,19,14,15,13.10
2010,02,19,14,16,13.10
2010,02,19,14,17,13.20
2010,02,19,14,18,13.20
2010,02,19,14,19,13.20
2010,02,19,14,20,13.20
2010,02,19,14,21,13.20
2010,02,19,14,22,13.20
2010,02,19,14,23,13.20
2010,02,19,14,24,13.20
2010,02,19,14,25,13.10
2010,02,19,14,26,13.00
2010,02,19,14,27,13.00
2010,02,19,14,28,13.00
2010,02,19,14,29,13.00
2010,02,19,14,30,13.00
2010,02,19,14,31,13.10
2010,02,19,14,32,13.10
2010,02,19,14,33,13.10
2010,02,19,14,34,13.00
2010,02,19,14,35,13.00
2010,02,19,14,36,13.00
2010,02,19,14,37,13.00
2010,02,19,14,38,13.00
2010,02,19,14,39,13.00
2010,02,19,14,40,13.00
2010,02,19,14,41,13.00
2010,02,19,14,42,13.00
2010,02,19,14,43,13.00
2010,02,19,14,44,13.00
2010,02,19,14,45,12.90
2010,02,19,14,46,12.90
2010,02,19,14,47,13.00
2010,02,19,14,48,13.00
2010,02,19,14,49,13.10
2010,02,19,14,50,13.10
2010,02,19,14,51,13.10
2010,02,19,14,52,13.10
2010,02,19,14,53,13.10
2010,02,19,14,54,13.10
2010,02,19,14,55,13.10
2010,02,19,14,56,13.10
2010,02,19,14,57,13.10
2010,02,19,14,58,13.10
2010,02,19,14,59,13.00
2010,02,19,15,00,13.00
2010,02,19,15,01,13.00
2010,02,19,15,02,13.00
2010,02,19,15,03,13.00
2010,02,19,15,04,13.00
2010,02,19,15,05,13.00
2010,02,19,15,06,13.00
2010,02,19,15,07,13.00
2010,02,19,15,08,13.10
2010,02,19,15,09,13.10
2010,02,19,15,10,13.00
2010,02,19,15,11,13.10
2010,02,19,15,12,13.10
2010,02,19,15,13,13.10
2010,02,19,15,14,13.10
2010,02,19,15,15,13.10
2010,02,19,15,16,13.10
2010,02,19,15,17,13.00
2010,02,19,15,18,13.00
2010,02,19,15,19,12.90
2010,02,19,15,20,12.90
2010,02,19,15,21,12.90
2010,02,19,15,22,12.90
2010,02,19,15,23,12.90
2010,02,19,15,24,13.00
2010,02,19,15,25,13.00
2010,02,19,15,26,13.00
2010,02,19,15,27,13.10
2010,02,19,15,28,13.20
2010,02,19,15,29,13.20
2010,02,19,15,30,13.20
2010,02,19,15,31,13.20
2010,02,19,15,32,13.30
2010,02,19,15,33,13.30
2010,02,19,15,34,13.30
2010,02,19,15,35,13.30
2010,02,19,15,36,13.30
2010,02,19,15,37,13.40
2010,02,19,15,38,13.50
2010,02,19,15,39,13.60
2010,02,19,15,40,13.60
2010,02,19,15,41,13.50
2010,02,19,15,42,13.50
2010,02,19,15,43,13.50
2010,02,19,15,44,13.40
2010,02,19,15,45,13.40
2010,02,19,15,46,13.30
2010,02,19,15,47,13.30
2010,02,19,15,48,13.20
2010,02,19,15,49,13.10
2010,02,19,15,50,13.10
2010,02,19,15,51,13.10
2010,02,19,15,52,13.10
2010,02,19,15,53,13.10
2010,02,19,15,54,13.10
2010,02,19,15,55,13.10
2010,02,19,15,56,13.10
2010,02,19,15,57,13.10
2010,02,19,15,58,13.10
2010,02,19,15,59,13.10
2010,02,19,16,00,13.10
2010,02,19,16,01,13.10
2010,02,19,16,02,13.10
2010,02,19,16,03,13.10
2010,02,19,16,04,13.10
2010,02,19,16,05,13.00
2010,02,19,16,06,13.00
2010,02,19,16,07,13.00
2010,02,19,16,08,13.00
2010,02,19,16,09,12.90
2010,02,19,16,10,12.90
2010,02,19,16,11,12.90
2010,02,19,16,12,12.90
2010,02,19,16,13,12.80
2010,02,19,16,14,12.80
2010,02,19,16,15,12.80
2010,02,19,16,16,12.80
2010,02,19,16,17,12.80
2010,02,19,16,18,12.90
2010,02,19,16,19,12.90
2010,02,19,16,20,12.90
2010,02,19,16,21,12.90
2010,02,19,16,22,13.00
2010,02,19,16,23,13.10
2010,02,19,16,24,13.10
2010,02,19,16,25,13.10
2010,02,19,16,26,13.10
2010,02,19,16,27,13.10
2010,02,19,16,28,13.10
2010,02,19,16,29,13.10
2010,02,19,16,30,13.10
2010,02,19,16,31,13.10
2010,02,19,16,32,13.10
2010,02,19,16,33,13.10
2010,02,19,16,34,13.20
2010,02,19,16,35,13.20
2010,02,19,16,36,13.20
2010,02,19,16,37,13.10
2010,02,19,16,38,13.10
2010,02,19,16,39,13.00
2010,02,19,16,40,13.00
2010,02,19,16,41,13.00
2010,02,19,16,42,12.90
2010,02,19,16,43,12.90
2010,02,19,16,44,12.80
2010,02,19,16,45,12.80
2010,02,19,16,46,12.70
2010,02,19,16,47,12.70
2010,02,19,16,48,12.70
2010,02,19,16,49,12.70
2010,02,19,16,50,12.70
2010,02,19,16,51,12.60
2010,02,19,16,52,12.60
2010,02,19,16,53,12.60
2010,02,19,16,54,12.50
2010,02,19,16,55,12.40
2010,02,19,16,56,12.30
2010,02,19,16,57,12.20
2010,02,19,16,58,12.10
2010,02,19,16,59,12.00
2010,02,19,17,00,11.90
2010,02,19,17,01,11.70
2010,02,19,17,02,11.60
2010,02,19,17,03,11.50
2010,02,19,17,04,11.40
2010,02,19,17,05,11.30
2010,02,19,17,06,11.20
2010,02,19,17,07,11.10
2010,02,19,17,08,11.00
2010,02,19,17,09,10.90
2010,02,19,17,10,10.80
2010,02,19,17,11,10.80
2010,02,19,17,12,10.70
2010,02,19,17,13,10.70
2010,02,19,17,14,10.60
2010,02,19,17,15,10.50
2010,02,19,17,16,10.50
2010,02,19,17,17,10.40
2010,02,19,17,18,10.40
2010,02,19,17,19,10.40
2010,02,19,17,20,10.30
2010,02,19,17,21,10.30
2010,02,19,17,22,10.30
2010,02,19,17,23,10.20
2010,02,19,17,24,10.20
2010,02,19,17,25,10.20
2010,02,19,17,26,10.10
2010,02,19,17,27,10.10
2010,02,19,17,28,10.00
2010,02,19,17,29,10.00
2010,02,19,17,30,9.90
2010,02,19,17,31,9.90
2010,02,19,17,32,9.80
2010,02,19,17,33,9.80
2010,02,19,17,34,9.70
2010,02,19,17,35,9.70
2010,02,19,17,36,9.60
2010,02,19,17,37,9.60
2010,02,19,17,38,9.50
2010,02,19,17,39,9.50
2010,02,19,17,40,9.40
2010,02,19,17,41,9.40
2010,02,19,17,42,9.30
2010,02,19,17,43,9.30
2010,02,19,17,44,9.20
2010,02,19,17,45,9.20
2010,02,19,17,46,9.20